Orbital Elements at Epoch 2459200.5 (2020-Dec-17.0) TDB
Reference: JPL 41 (heliocentric ecliptic J2000)
Element | Value | Uncertainty (1-sigma) | Units |
e | .1704781590566641 | 2.2255e-08 | |
a | 2.771037694787255 | 1.1308e-08 | au |
q | 2.298636289903301 | 6.2952e-08 | au |
i | 7.573997696573083 | 5.3133e-07 | deg |
node | 260.6429136711253 | 2.0153e-06 | deg |
peri | 82.55335330668768 | 3.8567e-06 | deg |
M | 159.2177875178054 | 5.3733e-06 | deg |
tp | 2458455.337208153685 (2018-Dec-02.83720815) | 2.2171e-05 | TDB |
period | 1684.853239369841 4.61 | 1.0314e-05 2.824e-08 | d yr |
n | .2136684617911558 | 1.3079e-09 | deg/d |
Q | 3.243439099671208 | 1.3236e-08 | au |
|
| | Orbit Determination Parameters
Additional Information
|